Location: Wells
(51.2093°N, 2.6446°W)
Time: 06:18:28
(UTC+01:00)

PCSat - Pass Details

Date: 16 March 2026
Orbit: 780 x 790 km, 67.1° (Epoch: 13 April)

Event Time Altitude Azimuth Distance (km) Brightness Sun altitude
Exits shadow 01:39:52 18° 343° (NNW) 1,841 11.8 -37.8°
Drops below altitude 10° 01:43:28 10° 25° (NNE) 2,365 12.8 -37.5°
Sets 01:46:39 0° 44° (NE) 3,296 13.7 -37.3°
